Location: Rostock
(54.0884°N, 12.1234°E)
Time: 22:50:26
(UTC+02:00)

ISS - Visible Passes

Search period start: 25 September 2020 00:00
Search period end: 05 October 2020 00:00
Orbit: 419 x 420 km, 51.6° (Epoch: 26 September)

Date Brightness Start Highest point End Pass type
(mag) Time Alt. Az. Time Alt. Az. Time Alt. Az.
25 Sep -3.6 20:58:29 10° W 21:01:49 57° S 21:02:08 54° SSE visible
26 Sep -3.5 20:11:10 10° WSW 20:14:29 56° S 20:16:31 21° ESE visible
26 Sep -1.7 21:47:50 10° W 21:49:28 24° WSW 21:49:28 24° WSW visible
27 Sep -3.4 21:00:28 10° W 21:03:44 48° SSW 21:03:50 48° S visible
28 Sep -3.4 20:13:04 10° W 20:16:24 54° S 20:18:11 24° ESE visible
28 Sep -1.3 21:49:56 10° W 21:51:09 18° WSW 21:51:09 18° WSW visible
29 Sep -3.4 19:25:41 10° W 19:29:00 57° S 19:32:20 10° ESE visible
29 Sep -2.6 21:02:27 10° W 21:05:30 33° SSW 21:05:30 33° SSW visible
30 Sep -2.9 20:15:00 10° W 20:18:12 41° SSW 20:19:53 23° SE visible
30 Sep -0.8 21:52:24 10° WSW 21:52:51 12° WSW 21:52:51 12° WSW visible
01 Oct -3.1 19:27:34 10° W 19:30:50 48° SSW 19:34:07 10° ESE visible
01 Oct -1.8 21:04:37 10° W 21:07:11 20° SSW 21:07:15 20° SSW visible
02 Oct -2.1 20:17:00 10° W 20:19:53 26° SSW 20:21:42 17° SSE visible
03 Oct -2.4 19:29:29 10° W 19:32:34 33° SSW 19:35:38 10° SE visible
03 Oct -0.9 21:07:52 10° SW 21:08:38 11° SW 21:09:10 10° SSW visible
04 Oct -1.1 20:19:24 10° WSW 20:21:24 15° SW 20:23:24 10° S visible
